Retour au catalogue

METEOR 1-5 DEB

ActifPO
NORAD 58399·DEBRIS·🇷🇺 Russia

Lancé Jun 23, 1970 depuis Plesetsk Cosmodrome

Loading…

Prochains Passages (prochaines 24 heures)

TLE

FraisSource: Space-Track

Époque: Sep 14, 2026, 16:48 UTC

1 58399U 70047F   26257.70007829  .00000931  00000-0  50744-3 0  9993
2 58399  81.2224 159.7344 0023290 334.2243  25.7766 14.11301804148622

Suivez METEOR 1-5 DEB en temps réel avec AllMySat

Download on the App Store